Retour au catalogue

THORAD DELTA 1 DEB

ActifLEO
NORAD 8594·DEBRIS·🇺🇸 United States

Lancé Nov 15, 1974 depuis Vandenberg Space Force Base

Loading…

Prochains Passages (prochaines 24 heures)

TLE

FraisSource: Space-Track

Époque: Sep 14, 2026, 04:38 UTC

1 08594U 74089DH  26257.19338168  .00000024  00000-0  33952-3 0  9996
2 08594 101.7729 231.3709 0128374 251.6217 177.8561 12.73209555404876

Suivez THORAD DELTA 1 DEB en temps réel avec AllMySat

Download on the App Store